Regional Weather Roundup
Issued by NWS

Home | Current Version | Previous Version | Graphics & Text | Print | Product List | Glossary On
Versions: 1 2 3 4 5 6 7 8 9 10 11 12 13 14 15 16 17 18 19 20 21 22 23 24 25 26 27
000
ASUS43 KDMX 161207
RWRIA

WEATHER ROUNDUP FOR IOWA
NATIONAL WEATHER SERVICE DES MOINES IA
700 AM CDT WED APR 16 2014

NOTE: "FAIR" INDICATES FEW OR NO CLOUDS BELOW 12,000 FEET WITH NO
SIGNIFICANT WEATHER AND/OR OBSTRUCTIONS TO VISIBILITY.

* - THESE STATIONS ARE NOT NWS STATIONS...THUS NOT UNDER NWS
QUALITY CONTROL.  THEY ALSO DO NOT REPORT WEATHER SUCH
AS PRECIPITATION OR FOG.

IAZ001>003-012>014-020>022-031>034-043>046-161300-
   NORTHWEST IOWA

CITY           SKY/WX    TMP DP  RH WIND       PRES   REMARKS
CARROLL *      PTCLDY    45  28  53 S20G29    29.78R
CHEROKEE *     CLOUDY    45  30  57 S16       29.73R
DENISON *      MOCLDY    45  28  53 S20G32    29.73S
LE MARS *      CLOUDY    45  30  57 S20G30    29.66F
ORANGE CITY *  MOCLDY    45  27  49 S18G30    29.66F
SHELDON *      CLOUDY    43  30  61 SE22      29.66F
SIOUX CITY     CLOUDY    48  27  44 S18       29.69R
6HR MIN TEMP:  44; 6HR MAX TEMP:  49;

SPENCER        CLOUDY    40  31  70 SE15      29.74S WCI  32
6HR MIN TEMP:  35; 6HR MAX TEMP:  40;

STORM LAKE *   CLOUDY    43  30  61 S17       29.75R
$$

IAZ055>058-069>071-079>083-090>094-161300-
   SOUTHWEST IOWA

CITY           SKY/WX    TMP DP  RH WIND       PRES   REMARKS
ATLANTIC *     CLEAR     43  28  56 S17G28    29.80S
AUDUBON *      CLEAR     45  25  45 S17G29    29.80R
CLARINDA *     CLEAR     45  28  53 S14G22    29.86S
COUNCIL BLFS * CLEAR     43  30  61 S18       29.75S
CRESTON *      CLEAR     41  28  60 S20G28    29.87R
HARLAN  *      CLEAR     45  30  57 S21G29    29.79S
LAMONI         PTCLDY    40  25  55 S16G25    29.92S WCI  31
6HR MIN TEMP:  39; 6HR MAX TEMP:  42;

RED OAK *      PTCLDY    45  30  57 S21G28    29.82S
SHENANDOAH *   CLEAR     46  28  49 S25       29.82R
$$

IAZ047>049-059>061-072>074-084-161300-
   CENTRAL IOWA

CITY           SKY/WX    TMP DP  RH WIND       PRES   REMARKS
AMES           CLOUDY    37  27  67 SE13      29.89S WCI  29
6HR MIN TEMP:  35; 6HR MAX TEMP:  37;

ANKENY *       PTCLDY    43  27  52 S16       29.90S
CHARITON *     CLEAR     41  27  56 S17G24    29.94R
DES MOINES     CLOUDY    43  25  49 S18G26    29.91S
6HR MIN TEMP:  39; 6HR MAX TEMP:  43;

GRINNELL*      PTCLDY    36  27  69 SE20      29.97S WCI  25
KNOXVILLE *    MOCLDY    41  25  52 S13G23    29.94S
MARSHALLTOWN   CLOUDY    36  26  67 SE22G30   29.94S WCI  25
6HR MIN TEMP:  34; 6HR MAX TEMP:  37;

NEWTON *       PTCLDY    36  27  69 SE15      29.96R WCI  26
PELLA *        MOCLDY    39  27  60 SE12      29.97S WCI  32
PERRY *          N/A     43  28  56 S20       29.84S
$$

IAZ004>006-015-016-023>025-035-036-161300-
   NORTH CENTRAL IOWA

CITY           SKY/WX    TMP DP  RH WIND       PRES   REMARKS
ALGONA *       CLOUDY    37  28  70 SE25G32   29.81R WCI  26
CLARION *      MIX PCPN  37  28  70 SE23G32   29.84S WCI  26
ESTHERVILLE    CLOUDY    36  30  79 SE20      29.75S WCI  25
6HR MIN TEMP:  31; 6HR MAX TEMP:  36;

FORT DODGE *   CLOUDY    39  27  60 SE13G21   29.82F WCI  32
MASON CITY     CLOUDY    35  26  69 SE22G31   29.89S WCI  23
6HR MIN TEMP:  32; 6HR MAX TEMP:  35;

FOREST CITY *  CLOUDY    36  28  75 SE22      29.85S WCI  24
IOWA FALLS *   CLOUDY    36  27  69 SE20G28   29.90S WCI  25
$$

IAZ007>011-017>019-026>030-037>042-050>054-066-161300-
   NORTHEAST IOWA

CITY           SKY/WX    TMP DP  RH WIND       PRES   REMARKS
CEDAR RAPIDS   CLOUDY    36  22  56 SE17G26   30.05S WCI  26
6HR MIN TEMP:  32; 6HR MAX TEMP:  36;

CHARLES CITY * CLOUDY    36  23  60 SE24G33   29.95S WCI  24
CLINTON *      CLOUDY    34  23  64 SE13      30.20R WCI  25
DECORAH *      CLOUDY    34  19  55 SE20G28   30.01F WCI  22
DUBUQUE        CLOUDY    32  22  66 SE17G28   30.11S WCI  21
6HR MIN TEMP:  29; 6HR MAX TEMP:  33;

MONTICELLO *   CLOUDY    34  23  64 SE18G26   30.09F WCI  23
OELWEIN *      MOCLDY   N/A N/A N/A SE18      30.02R
WATERLOO       CLOUDY    37  23  56 SE24G30   29.98S WCI  26
6HR MIN TEMP:  33; 6HR MAX TEMP:  38;

$$

IAZ064-065-067-068-078-161300-
   EAST CENTRAL IOWA

CITY           SKY/WX    TMP DP  RH WIND       PRES   REMARKS
DAVENPORT      PTCLDY    35  23  61 SE15      30.15R WCI  25
6HR MIN TEMP:  29; 6HR MAX TEMP:  35;

IOWA CITY      MOCLDY    34  25  69 SE13      30.09S WCI  25
6HR MIN TEMP:  31; 6HR MAX TEMP:  34;

MT. PLEASANT * PTCLDY    36  25  64 SE15      30.09R WCI  26
MUSCATINE *    CLOUDY    36  25  64 SE7       30.13R WCI  30
QUAD CITIES    MOCLDY    35  23  61 SE13      30.14S WCI  26
6HR MIN TEMP:  27; 6HR MAX TEMP:  35;

$$

IAZ062-063-075>077-085>089-095>099-161300-
   SOUTHEAST IOWA

CITY           SKY/WX    TMP DP  RH WIND       PRES   REMARKS
BURLINGTON     CLEAR     37  24  59 S15G25    30.11R WCI  28
6HR MIN TEMP:  36; 6HR MAX TEMP:  37;

FAIRFIELD *    CLEAR     37  23  56 SE15      30.05S WCI  28
FORT MADISON * CLEAR     36  27  69 SE12      30.12R WCI  27
KEOKUK *       CLEAR     37  25  60 SE10G17   30.10S WCI  30
OSKALOOSA *      N/A     36  27  70 SE15      30.01R WCI  26
CENTERVILLE *  CLEAR     39  25  56 S15G22    30.00S WCI  31
OTTUMWA        PTCLDY    37  24  59 S15       30.00S WCI  28
6HR MIN TEMP:  37; 6HR MAX TEMP:  38;

WASHINGTON *   PTCLDY    34  27  75 SE15      30.07S WCI  24
$$

ABBREVIATIONS USED IN REMARKS
   TC - TEMPERATURES IN CELSIUS
  WCI - WIND CHILL INDEX
   HX - HEAT INDEX
  VSB - VISIBILITY
$$




USA.gov is the U.S. government's official web portal to all federal, state and local government web resources and services.